[[{"header":{"parameterUnit":"m.s-1","parameterCategory":1,"la1":30.2991,"la2":30.254,"lo1":-89.0895,"lo2":-89.0444,"dy":0.0017,"dx":0.0017,"nx":28,"ny":28,"refTime":"2023-09-26T21:00:00:Z","depth":0,"parameterNumber":2,"parameterNumberName":"U-component_of_WINDS"},"data":[0,0,0,0,0,0,0,0,0,0,0,0,0,0,0,0,0,0,0,0,0,0,0,0,0,0,0,0,0,0,0,0,0,0,0,0,0,0,0,0,0,0,0,0,0,0,0,0,0,0,0,0,0,0,0,0,0,0,0.1755,0.1755,0,0.1722,0.1722,0.1721,0.1704,0.1704,0.1704,0.1704,0.167,0.1669,0.1668,0,0,0,0,0,0,0,0,0,0,0,0,0,0.1803,0.1803,0.1755,0.1754,0.1754,0.1722,0.1722,0.1721,0.1704,0.1704,0.1704,0.1704,0.167,0.1669,0.1668,0,0,0,0,0,0,0,0,0,0,0,0,0,0.1778,0.1802,0.1755,0.1742,0.174,0.1722,0.1722,0.1721,0.1704,0.1704,0.1704,0.1704,0.167,0.1669,0.1668,0.166,0,0,0.1663,0.1663,0,0,0,0,0,0,0,0,0.1779,0.1776,0.1744,0.1742,0.1741,0.1717,0.1726,0.1701,0.1704,0.1718,0.1704,0.1704,0.1685,0.1683,0.1677,0.1659,0.1657,0.1663,0.1663,0.1662,0.1662,0,0,0,0,0,0,0,0.1781,0.1777,0.1742,0.1744,0.1742,0.1738,0.1734,0.1721,0.1702,0.1716,0.1715,0.1711,0.1684,0.1678,0.1676,0.1657,0.1663,0.1662,0.1661,0.1661,0.1632,0.1632,0,0,0,0,0,0,0.1785,0.1779,0.1743,0.1741,0.176,0.1737,0.1733,0.1725,0.1702,0.1699,0.1712,0.1711,0.168,0.1677,0.1674,0.1665,0.1662,0.1661,0.166,0.1632,0.1632,0.1632,0,0,0,0,0,0,0.1786,0.1782,0.1744,0.1759,0.1754,0.1736,0.1727,0.1724,0.1717,0.1698,0.1695,0.1708,0.168,0.1676,0.1664,0.1663,0.166,0.1659,0.1632,0.1632,0.1632,0.1645,0,0,0,0,0,0,0.1787,0.1782,0.1779,0.176,0.1754,0.1734,0.1727,0.1723,0.1715,0.1714,0.1695,0.1691,0.168,0.1666,0.1663,0.1661,0.1658,0.1632,0.1632,0.1632,0.1645,0.1645,0.1646,0,0,0,0,0,0.1789,0.1784,0.1779,0.1775,0.1749,0.1734,0.1731,0.1718,0.1715,0.1712,0.17,0.1692,0.1664,0.1665,0.1661,0.1659,0.1632,0.1632,0.1632,0.1644,0.1645,0.1646,0,0,0,0,0,0,0.1803,0.1781,0.1775,0.1763,0.1751,0.1731,0.1727,0.1719,0.1707,0.1706,0.1691,0.1687,0.1676,0.1666,0.1668,0.1652,0.1647,0.1647,0.1658,0.1659,0.166,0.1662,0.1657,0,0,0,0,0,0.1804,0.1794,0.1776,0.1767,0.1761,0.1745,0.1738,0.1729,0.1716,0.171,0.1697,0.1684,0.1673,0.1665,0.1654,0.1644,0.1639,0.1641,0.1641,0.1642,0.1641,0.1636,0.1636,0.1632,0.1632,0.1632,0,0,0.1807,0.1794,0.1788,0.1769,0.1758,0.1748,0.1741,0.173,0.1722,0.1708,0.1696,0.1687,0.1671,0.166,0.1655,0.1652,0.1642,0.1642,0.1643,0.1642,0.1636,0.1637,0.1637,0.1632,0.1632,0.1632,0,0,0.1808,0.1797,0.1788,0.1778,0.1763,0.1753,0.1751,0.1733,0.1726,0.1714,0.1703,0.1695,0.1675,0.1664,0.1657,0.1656,0.1648,0.1652,0.1656,0.1651,0.1652,0.1652,0.1651,0.1651,0.1652,0.1652,0.1652,0,0.1813,0.1798,0.1785,0.1775,0.1767,0.1756,0.1747,0.1738,0.1719,0.1714,0.1712,0.1688,0.1676,0.1663,0.1663,0.1657,0.1655,0.1654,0.1653,0.1653,0.1653,0.1652,0.1652,0.1652,0.1652,0.1652,0.1652,0,0.1805,0.1795,0.179,0.1773,0.1765,0.1756,0.1743,0.1736,0.1728,0.1719,0.1707,0.1693,0.1679,0.1676,0.1668,0.1662,0.1661,0.1656,0.1651,0.1654,0.1653,0.1653,0.1653,0.1653,0.1653,0.1653,0,0,0.1811,0.1789,0.1787,0.178,0.1763,0.1755,0.1746,0.1733,0.1727,0.1715,0.1707,0.1692,0.1688,0.1679,0.167,0.1666,0.1666,0.1662,0.1661,0.1663,0.1659,0.1662,0.1662,0.1662,0.1662,0.1662,0.166,0,0.1809,0.1792,0.1782,0.177,0.176,0.175,0.1742,0.1731,0.1722,0.1713,0.1704,0.1693,0.1688,0.1683,0.1678,0.1667,0.1665,0.1667,0.1654,0.1654,0.1658,0.1662,0.1665,0.1664,0.166,0.166,0.166,0,0.1803,0.1793,0.178,0.1765,0.1761,0.1754,0.1741,0.1733,0.1721,0.1715,0.1706,0.1697,0.1688,0.1685,0.1672,0.1674,0.1668,0.1662,0.1662,0.166,0.1656,0.1659,0.1664,0.1663,0.1659,0.1659,0.1659,0,0.1809,0.1791,0.1781,0.1775,0.1758,0.1754,0.1746,0.1734,0.1727,0.1716,0.1712,0.17,0.1694,0.1685,0.1674,0.1673,0.1662,0.1658,0.1657,0.1657,0.1654,0.1654,0.1657,0.1651,0.1651,0.1652,0.1652,0,0.1807,0.1799,0.1784,0.1778,0.1769,0.1758,0.175,0.1742,0.1731,0.1723,0.1714,0.1707,0.1693,0.1685,0.1676,0.1667,0.1664,0.1659,0.1656,0.1659,0.166,0.1654,0.1654,0.1651,0.1651,0.1651,0.1651,0,0.1811,0.18,0.1789,0.1774,0.177,0.1765,0.1752,0.1746,0.1737,0.1728,0.1725,0.1712,0.1701,0.169,0.1675,0.1669,0.1661,0.1658,0.1665,0.1663,0.1663,0.1663,0.1662,0.1661,0.1656,0.1657,0.1657,0,0.1809,0.1804,0.1789,0.1783,0.1776,0.1767,0.1761,0.175,0.1743,0.173,0.1725,0.1715,0.1705,0.1689,0.1678,0.1667,0.1663,0.1664,0.1662,0.1665,0.1663,0.1663,0.1663,0.1664,0.1664,0.1664,0.1664,0,0.1809,0.1804,0.1795,0.1785,0.1777,0.1768,0.1759,0.1755,0.1742,0.1736,0.1725,0.1718,0.1704,0.1693,0.1682,0.1674,0.1667,0.1666,0.1665,0.1667,0.1671,0.1669,0.1666,0.1665,0.1665,0.1665,0.1665,0.1665,0.181,0.1804,0.1793,0.1784,0.1776,0.1768,0.1762,0.1754,0.1745,0.1733,0.1727,0.1717,0.1706,0.169,0.1683,0.1674,0.1672,0.1671,0.167,0.167,0.1671,0.1674,0.1672,0.1672,0.1672,0.1672,0.1672,0,0.1808,0.1801,0.1793,0.1781,0.1773,0.1769,0.1759,0.1753,0.1744,0.1735,0.1727,0.1715,0.1705,0.1694,0.1684,0.1679,0.1676,0.1677,0.1677,0.1675,0.1673,0.1675,0.168,0.168,0.168,0.168,0.168,0.168,0.1806,0.1797,0.1792,0.178,0.1773,0.1763,0.1758,0.175,0.1743,0.1731,0.1723,0.1716,0.1706,0.1695,0.1686,0.1683,0.168,0.1681,0.1677,0.1676,0.1675,0.1674,0.1676,0.1681,0.1681,0.168,0.168,0.168]},{"header":{"parameterUnit":"m.s-1","parameterCategory":1,"la1":30.2991,"la2":30.254,"lo1":-89.0895,"lo2":-89.0444,"dy":0.0017,"dx":0.0017,"nx":28,"ny":28,"refTime":"2023-09-26T21:00:00:Z","depth":0,"parameterNumber":3,"parameterNumberName":"V-component_of_WINDS"},"data":[0,0,0,0,0,0,0,0,0,0,0,0,0,0,0,0,0,0,0,0,0,0,0,0,0,0,0,0,0,0,0,0,0,0,0,0,0,0,0,0,0,0,0,0,0,0,0,0,0,0,0,0,0,0,0,0,0,0,-0.1743,-0.1742,0,-0.1671,-0.167,-0.1669,-0.1686,-0.1687,-0.1688,-0.169,-0.1613,-0.161,-0.1607,0,0,0,0,0,0,0,0,0,0,0,0,0,-0.1894,-0.1891,-0.1743,-0.1742,-0.1741,-0.1671,-0.167,-0.1669,-0.1685,-0.1687,-0.1689,-0.169,-0.1614,-0.161,-0.1607,0,0,0,0,0,0,0,0,0,0,0,0,0,-0.1826,-0.1891,-0.1743,-0.1741,-0.174,-0.1671,-0.167,-0.1668,-0.1685,-0.1687,-0.1689,-0.1691,-0.1616,-0.1611,-0.1606,-0.1534,0,0,-0.1591,-0.1589,0,0,0,0,0,0,0,0,-0.183,-0.182,-0.1742,-0.1741,-0.174,-0.1689,-0.1695,-0.1623,-0.1685,-0.1706,-0.169,-0.1692,-0.1637,-0.163,-0.1612,-0.153,-0.1527,-0.159,-0.1587,-0.1585,-0.1584,0,0,0,0,0,0,0,-0.1834,-0.1824,-0.1714,-0.1741,-0.1739,-0.1743,-0.1736,-0.1682,-0.166,-0.1704,-0.1705,-0.1697,-0.1637,-0.1617,-0.161,-0.1526,-0.159,-0.1586,-0.1583,-0.1581,-0.1385,-0.1382,0,0,0,0,0,0,-0.184,-0.1827,-0.1716,-0.1712,-0.1791,-0.1739,-0.1731,-0.1703,-0.1661,-0.1657,-0.1695,-0.1698,-0.1624,-0.1616,-0.1608,-0.1523,-0.1585,-0.158,-0.1578,-0.1387,-0.1384,-0.1382,0,0,0,0,0,0,-0.1844,-0.183,-0.1719,-0.177,-0.1756,-0.1734,-0.1703,-0.1701,-0.1681,-0.1654,-0.165,-0.1679,-0.1626,-0.1615,-0.1553,-0.1521,-0.1578,-0.1574,-0.1389,-0.1386,-0.1383,-0.1351,0,0,0,0,0,0,-0.1848,-0.1831,-0.1804,-0.1769,-0.1753,-0.1666,-0.1701,-0.1698,-0.1673,-0.1676,-0.1638,-0.1634,-0.1626,-0.156,-0.1548,-0.1515,-0.157,-0.1392,-0.1388,-0.1384,-0.1355,-0.1347,-0.1341,0,0,0,0,0,-0.1853,-0.1796,-0.1802,-0.1789,-0.1718,-0.1664,-0.1655,-0.1648,-0.167,-0.1642,-0.1626,-0.1635,-0.1526,-0.1554,-0.154,-0.1505,-0.1394,-0.1389,-0.1384,-0.1359,-0.1349,-0.1341,0,0,0,0,0,0,-0.1826,-0.1792,-0.1798,-0.1728,-0.1699,-0.1667,-0.1631,-0.1638,-0.1601,-0.1605,-0.1598,-0.1589,-0.1527,-0.1509,-0.1541,-0.1434,-0.1463,-0.1455,-0.1448,-0.1439,-0.1432,-0.1438,-0.1566,0,0,0,0,0,-0.1812,-0.1771,-0.1743,-0.1684,-0.1669,-0.1653,-0.1629,-0.1627,-0.1596,-0.1583,-0.1562,-0.1531,-0.1491,-0.1463,-0.1424,-0.1353,-0.1346,-0.1322,-0.1314,-0.1309,-0.1302,-0.1266,-0.1256,-0.1365,-0.1365,-0.1365,0,0,-0.1782,-0.1758,-0.1732,-0.1678,-0.1655,-0.1614,-0.1642,-0.1596,-0.1565,-0.1576,-0.1518,-0.1501,-0.1466,-0.14,-0.137,-0.1383,-0.1271,-0.1302,-0.1298,-0.1294,-0.126,-0.125,-0.124,-0.1362,-0.1362,-0.1363,0,0,-0.1707,-0.1684,-0.1634,-0.1612,-0.1578,-0.1567,-0.1556,-0.1523,-0.1513,-0.1454,-0.1463,-0.1425,-0.1354,-0.1331,-0.1309,-0.1228,-0.1236,-0.1215,-0.1178,-0.1143,-0.1134,-0.1127,-0.11,-0.1091,-0.1209,-0.1209,-0.1209,0,-0.1674,-0.1612,-0.1607,-0.1562,-0.1538,-0.1548,-0.1498,-0.1476,-0.143,-0.1414,-0.143,-0.1344,-0.1321,-0.1251,-0.1232,-0.1213,-0.12,-0.122,-0.1136,-0.1128,-0.1121,-0.1096,-0.1086,-0.1207,-0.1207,-0.1207,-0.1207,0,-0.1575,-0.1532,-0.1495,-0.1454,-0.1426,-0.1378,-0.1367,-0.1339,-0.134,-0.1329,-0.127,-0.1243,-0.12,-0.1183,-0.1182,-0.1114,-0.1124,-0.1138,-0.1167,-0.1109,-0.1085,-0.1075,-0.1204,-0.1204,-0.1205,-0.1205,0,0,-0.1479,-0.1438,-0.1425,-0.1407,-0.1372,-0.1338,-0.1292,-0.1251,-0.1229,-0.1197,-0.1159,-0.11,-0.1114,-0.109,-0.1087,-0.1056,-0.0997,-0.1074,-0.1073,-0.1063,-0.0923,-0.0914,-0.0903,-0.1002,-0.1,-0.0998,-0.0927,0,-0.1403,-0.1322,-0.1318,-0.1245,-0.1206,-0.1216,-0.1176,-0.115,-0.1138,-0.1104,-0.1091,-0.1051,-0.107,-0.1056,-0.1026,-0.1011,-0.0969,-0.1015,-0.0968,-0.0966,-0.0978,-0.089,-0.088,-0.0814,-0.0917,-0.0916,-0.0915,0,-0.1303,-0.1272,-0.1195,-0.1168,-0.1152,-0.1116,-0.108,-0.1046,-0.1018,-0.1012,-0.0986,-0.0988,-0.0941,-0.0972,-0.0908,-0.094,-0.092,-0.091,-0.0907,-0.0903,-0.0938,-0.0887,-0.0792,-0.0783,-0.0899,-0.0901,-0.0902,0,-0.1245,-0.1182,-0.113,-0.1114,-0.108,-0.1055,-0.104,-0.1013,-0.099,-0.0959,-0.0944,-0.0907,-0.0887,-0.0858,-0.085,-0.0873,-0.0788,-0.0817,-0.0783,-0.0783,-0.0765,-0.0767,-0.0669,-0.0749,-0.0749,-0.0749,-0.075,0,-0.1161,-0.1115,-0.1104,-0.1071,-0.102,-0.1016,-0.0965,-0.0951,-0.0928,-0.0894,-0.0899,-0.0866,-0.0857,-0.0823,-0.0817,-0.0767,-0.0757,-0.0752,-0.0751,-0.0752,-0.0753,-0.074,-0.0745,-0.0747,-0.0747,-0.0748,-0.0748,0,-0.1087,-0.1078,-0.1022,-0.0995,-0.0988,-0.0951,-0.0929,-0.0898,-0.0888,-0.0845,-0.0834,-0.0818,-0.0779,-0.0769,-0.072,-0.0716,-0.0658,-0.0661,-0.0669,-0.0669,-0.0637,-0.0641,-0.0528,-0.0514,-0.0602,-0.0601,-0.0601,0,-0.1036,-0.1001,-0.0972,-0.095,-0.0934,-0.0898,-0.0876,-0.087,-0.0847,-0.0813,-0.0787,-0.0749,-0.0718,-0.0655,-0.0639,-0.0603,-0.0606,-0.0569,-0.0601,-0.0604,-0.0608,-0.0612,-0.0609,-0.0563,-0.0563,-0.0562,-0.0561,0,-0.0946,-0.0944,-0.0911,-0.0878,-0.0852,-0.0825,-0.0799,-0.078,-0.0772,-0.0745,-0.0706,-0.0682,-0.0635,-0.0598,-0.0562,-0.0546,-0.0553,-0.0551,-0.0542,-0.0544,-0.0551,-0.055,-0.0655,-0.0554,-0.0555,-0.0555,-0.0556,-0.0556,-0.0883,-0.0854,-0.083,-0.0794,-0.0775,-0.0752,-0.0723,-0.071,-0.0678,-0.064,-0.0639,-0.0597,-0.0572,-0.0525,-0.0507,-0.0475,-0.0486,-0.0472,-0.0469,-0.0466,-0.0464,-0.0555,-0.0468,-0.0468,-0.0468,-0.0469,-0.0469,0,-0.0796,-0.0782,-0.0749,-0.0715,-0.0687,-0.0697,-0.0669,-0.0646,-0.0609,-0.0586,-0.0556,-0.0513,-0.0477,-0.0459,-0.0424,-0.0402,-0.0404,-0.0393,-0.0396,-0.0392,-0.0455,-0.0468,-0.0392,-0.0392,-0.0392,-0.0392,-0.0392,-0.0392,-0.0747,-0.0699,-0.0695,-0.0637,-0.0623,-0.0584,-0.0568,-0.0547,-0.0528,-0.048,-0.0451,-0.044,-0.0419,-0.0383,-0.0352,-0.0347,-0.0335,-0.0323,-0.0321,-0.038,-0.0388,-0.0395,-0.0407,-0.032,-0.032,-0.0261,-0.026,-0.026]}]]